Flag for Canada Weather past 2 weeks in Timmins, Ontario, Canada

Now
36 °F

Overcast.


Feels Like: 29 °F
Forecast: 33 / 55 °F
Wind: 8 mph from North

Location: Timmins

Current Time: Sep 30, 2014 at 2:13:09 AM

Latest Report: Sep 30, 2014 at 1:00 AM


Visibility: 15 mi

Pressure: 30.15 "Hg

Humidity: 93%

Dew point: 34 °F

Location of TimminsLocation

Historic Weather in Timmins — Graph

°F

Timmins temperature yesterday

Maximum temperature yesterday: 41 °F (at 12:00 AM)
Minimum temperature yesterday: 34 °F (at 12:00 PM)
Average temperature yesterday: 37 °F

Past Weeks' High & Low Weather Summary

 TemperatureHumidityPressure
High79 °F (Sep 27, 4:00 PM)100% (Sep 15, 4:00 AM)30.39 "Hg (Sep 15, 4:00 AM)
Low27 °F (Sep 19, 2:00 AM)9% (Sep 21, 6:00 AM)29.49 "Hg (Sep 20, 4:00 PM)
Average49 °F84%30.09 "Hg
* Reported Sep 15 1:00 AM — Sep 30 1:00 AM, Timmins, Weather by CustomWeather, © 2014

Note: Actual official high and low records may vary slightly from our data, if they occured in-between our weather recording intervals... More about our weather records

Advertising

Timmins weather history for previous 24 hours

 ConditionsComfort  
Time TempWeatherWind HumidityBarometerVisibility
1:00 AM
Sep 30
36 °FOvercast.8 mph93%30.15 "Hg15 mi
12:00 AM36 °FMostly cloudy.7 mph93%30.16 "Hg15 mi
11:00 PM
Sep 29
36 °FOvercast.7 mph93%30.16 "Hg15 mi
10:00 PM36 °FOvercast.9 mph93%30.17 "Hg15 mi
9:00 PM36 °FOvercast.10 mph93%30.16 "Hg15 mi
8:00 PM36 °FDrizzle. Low clouds.12 mph93%30.17 "Hg8 mi
7:00 PM36 °FDrizzle. Low clouds.13 mph100%30.16 "Hg8 mi
6:00 PM37 °FLow clouds.13 mph93%30.15 "Hg10 mi
5:00 PM37 °FLight rain. Low clouds.14 mph93%30.15 "Hg10 mi
4:00 PM37 °FLight rain. Low clouds.14 mph93%30.15 "Hg5 mi
3:00 PM36 °FLight rain. Mostly cloudy.14 mph100%30.16 "Hg5 mi
2:00 PM34 °FLight rain. Fog.13 mph100%30.18 "Hg4 mi
1:00 PM34 °FLight rain. Fog.13 mph100%30.19 "Hg4 mi
12:00 PM34 °FLight rain. Fog.10 mph100%30.19 "Hg5 mi
11:00 AM36 °FLight rain. Fog.12 mph93%30.19 "Hg5 mi
10:00 AM36 °FLight rain. Fog.12 mph100%30.20 "Hg5 mi
9:00 AM37 °FLight rain. Fog.12 mph93%30.20 "Hg4 mi
8:00 AM37 °FLight rain. Fog.10 mph93%30.19 "Hg5 mi
7:00 AM37 °FLight rain. Fog.15 mph93%30.18 "Hg3 mi
6:00 AM39 °FLight rain. Overcast.14 mph93%30.18 "Hg8 mi
5:00 AM39 °FLight rain. Overcast.13 mph93%30.17 "Hg8 mi
4:00 AM39 °FOvercast.10 mph100%30.17 "Hg15 mi
3:00 AM41 °FOvercast.9 mph93%30.19 "Hg15 mi
2:00 AM41 °FLight rain. Overcast.13 mph93%30.20 "Hg15 mi
Weather by CustomWeather, © 2014

See weather overviewHow to use our weather pages